TimeEDT,TemperatureF,Dew PointF,Humidity,Sea Level PressureIn,VisibilityMPH,Wind Direction,Wind SpeedMPH,Gust SpeedMPH,PrecipitationIn,Events,Conditions,WindDirDegrees,DateUTC
12:54 AM,55.9,50.0,80,30.19,10.0,NW,4.6,-,N/A,,Scattered Clouds,320,2013-08-15 04:54:00
1:54 AM,53.1,48.9,86,30.19,10.0,NNW,4.6,-,N/A,,Partly Cloudy,340,2013-08-15 05:54:00
2:54 AM,52.0,48.0,86,30.17,10.0,Calm,Calm,-,N/A,,Partly Cloudy,0,2013-08-15 06:54:00
3:54 AM,51.1,48.0,89,30.17,10.0,Calm,Calm,-,N/A,,Mostly Cloudy,0,2013-08-15 07:54:00
4:54 AM,50.0,46.9,89,30.18,10.0,SW,3.5,-,N/A,,Mostly Cloudy,220,2013-08-15 08:54:00
5:54 AM,50.0,46.0,86,30.18,10.0,Calm,Calm,-,N/A,,Mostly Cloudy,0,2013-08-15 09:54:00
6:54 AM,48.9,46.9,93,30.19,10.0,Calm,Calm,-,N/A,,Mostly Cloudy,0,2013-08-15 10:54:00
7:54 AM,52.0,50.0,93,30.20,10.0,Calm,Calm,-,N/A,,Mostly Cloudy,0,2013-08-15 11:54:00
8:54 AM,55.9,52.0,87,30.21,10.0,Calm,Calm,-,N/A,,Mostly Cloudy,0,2013-08-15 12:54:00
9:54 AM,61.0,53.1,75,30.20,10.0,Calm,Calm,-,N/A,,Mostly Cloudy,0,2013-08-15 13:54:00
10:54 AM,68.0,51.1,55,30.20,10.0,Calm,Calm,-,N/A,,Mostly Cloudy,0,2013-08-15 14:54:00
11:54 AM,66.9,46.9,49,30.21,10.0,South,3.5,-,N/A,,Mostly Cloudy,180,2013-08-15 15:54:00
12:54 PM,70.0,48.9,47,30.19,10.0,West,6.9,-,N/A,,Mostly Cloudy,260,2013-08-15 16:54:00
1:54 PM,71.1,46.9,42,30.17,10.0,Calm,Calm,-,N/A,,Mostly Cloudy,0,2013-08-15 17:54:00
2:54 PM,71.1,48.9,45,30.16,10.0,Variable,4.6,-,N/A,,Mostly Cloudy,0,2013-08-15 18:54:00
3:54 PM,72.0,48.9,44,30.14,10.0,Calm,Calm,-,N/A,,Mostly Cloudy,0,2013-08-15 19:54:00
4:54 PM,73.0,51.1,46,30.13,10.0,South,3.5,-,N/A,,Mostly Cloudy,190,2013-08-15 20:54:00
5:54 PM,71.1,50.0,47,30.13,10.0,South,4.6,-,N/A,,Mostly Cloudy,170,2013-08-15 21:54:00
6:54 PM,71.1,50.0,47,30.13,10.0,South,4.6,-,N/A,,Mostly Cloudy,190,2013-08-15 22:54:00
7:54 PM,68.0,53.1,59,30.13,10.0,SSW,3.5,-,N/A,,Mostly Cloudy,200,2013-08-15 23:54:00
8:54 PM,63.0,55.9,78,30.14,10.0,SW,3.5,-,N/A,,Mostly Cloudy,220,2013-08-16 00:54:00
9:54 PM,60.1,55.0,83,30.14,10.0,Calm,Calm,-,N/A,,Overcast,0,2013-08-16 01:54:00
10:54 PM,60.1,54.0,80,30.14,10.0,Calm,Calm,-,N/A,,Mostly Cloudy,0,2013-08-16 02:54:00
11:54 PM,57.0,54.0,89,30.15,10.0,Calm,Calm,-,N/A,,Mostly Cloudy,0,2013-08-16 03:54:00